This demonstration page uses our WeatherBlox Daily Observations layout. Learn more.

Left ArrowRight Arrow

30.21309, -93.2044

Hourly Observations for February 5, 2022

Temp ( °F °C ) Dew Point ( °F °C ) Humidity (%) Winds ( mph kmh ) Pressure ( in mb ) Visibility ( mi km ) Precip ( " mm )
12:15 am 00:15 Cloudy 35 1.4 26 -3.4 71 71 N 16 26 30.57 1035 10 16 0.00 0.00
12:35 am 00:35 Cloudy 34 1.3 26 -3.4 71 71 N 13 20 30.56 1035 10 16 0.00 0.00
12:55 am 00:55 Cloudy 34 1.1 26 -3.4 72 72 NNE 12 19 30.56 1035 10 16 0.00 0.00
1:15 am 01:15 Cloudy 33 0.8 26 -3.6 73 73 N 14 22 30.57 1035 10 16 0.00 0.00
1:35 am 01:35 Partly Cloudy 33 0.5 25 -3.7 74 74 NNE 9 15 30.57 1035 10 16 0.00 0.00
1:55 am 01:55 Clear 33 0.3 25 -3.8 74 74 N 10 17 30.57 1035 10 16 0.00 0.00
2:15 am 02:15 Clear 32 0 25 -3.8 76 76 N 12 19 30.56 1035 10 16 0.00 0.00
2:35 am 02:35 Clear 31 -0.3 26 -3.6 79 79 N 12 19 30.56 1035 10 16 0.00 0.00
2:55 am 02:55 Clear 31 -0.4 26 -3.3 81 81 N 10 17 30.56 1035 10 16 0.00 0.00
3:15 am 03:15 Clear 31 -0.6 26 -3.2 83 83 N 13 20 30.55 1035 10 16 0.00 0.00
3:35 am 03:35 Clear 31 -0.7 26 -3.1 84 84 N 9 15 30.55 1035 10 16 0.00 0.00
3:55 am 03:55 Clear 30 -0.9 26 -3.2 85 85 N 8 13 30.55 1035 10 16 0.00 0.00
4:15 am 04:15 Clear 30 -1.1 26 -3.2 86 86 NNE 8 13 30.55 1035 10 16 0.00 0.00
4:35 am 04:35 Clear 30 -1.1 26 -3.1 86 86 N 7 11 30.55 1035 10 16 0.00 0.00
4:55 am 04:55 Clear 30 -1.2 26 -3.1 87 87 N 8 13 30.55 1035 10 16 0.00 0.00
5:15 am 05:15 Clear 29 -1.4 26 -3.2 88 88 N 7 11 30.55 1035 10 16 0.00 0.00
5:35 am 05:35 Clear 29 -1.5 26 -3.2 88 88 N 6 9 30.55 1035 10 16 0.00 0.00
6:00 am 06:00 Mostly Clear 28 -2 27 -3 93 93 N 7 11 30.56 1035 10 16 0.00 0.00
6:55 am 06:55 Mostly Clear 28 -2 27 -3 93 93 N 7 11 30.56 1035 10 16 0.00 0.00
7:55 am 07:55 Mostly Sunny 30 -1 27 -3 86 86 NNE 7 11 30.57 1035 10 16 0.00 0.00
8:52 am 08:52 Mostly Sunny 34 1 27 -3 75 75 NNE 7 11 30.58 1036 10 16 0.00 0.00
9:55 am 09:55 Mostly Sunny 37 3 25 -4 60 60 NNE 7 11 30.57 1035 10 16 0.00 0.00
10:56 am 10:56 Mostly Sunny 43 6 19 -7 39 39 NNE 9 15 30.56 1035 10 16 0.00 0.00
11:54 am 11:54 Mostly Sunny 45 7 21 -6 39 39 NNE 8 13 30.53 1034 10 16 0.00 0.00
12:45 pm 12:45 Mostly Sunny 46 8 21 -6 37 37 NNE 8 13 30.50 1033 10 16 0.00 0.00
1:54 pm 13:54 Mostly Sunny 50 10 23 -5 35 35 ENE 7 11 30.45 1031 10 16 0.00 0.00
2:51 pm 14:51 Mostly Sunny 50 10 23 -5 35 35 NNE 5 7 30.42 1030 10 16 0.00 0.00
3:47 pm 15:47 Mostly Sunny 52 11 23 -5 32 32 ENE 8 13 30.40 1029 10 16 0.00 0.00
4:46 pm 16:46 Mostly Sunny 52 11 23 -5 32 32 Calm 30.39 1029 10 16 0.00 0.00
5:53 pm 17:53 Mostly Clear 48 9 23 -5 37 37 Calm 30.37 1028 10 16 0.00 0.00
6:48 pm 18:48 Mostly Clear 45 7 27 -3 49 49 Calm 30.38 1029 10 16 0.00 0.00
7:50 pm 19:50 Mostly Clear 39 4 27 -3 61 61 Calm 30.38 1029 10 16 0.00 0.00
8:50 pm 20:50 Mostly Clear 39 4 27 -3 61 61 Calm 30.38 1029 10 16 0.00 0.00
9:55 pm 21:55 Mostly Clear 36 2 28 -2 75 75 Calm 30.36 1028 10 16 0.00 0.00
10:15 pm 22:15 Clear 35 1.6 29 -1.6 80 80 E 5 7 30.36 1028 10 16 0.00 0.00
10:35 pm 22:35 Clear 35 1.5 28 -2.1 77 77 ESE 5 7 30.36 1028 10 16 0.00 0.00
10:55 pm 22:55 Clear 35 1.8 30 -1 82 82 Calm 30.35 1028 10 16 0.00 0.00
11:15 pm 23:15 Clear 37 2.5 29 -1.9 73 73 Calm 30.35 1028 10 16 0.00 0.00
11:35 pm 23:35 Clear 37 2.5 28 -2.1 72 72 Calm 30.35 1028 10 16 0.00 0.00
11:55 pm 23:55 Clear 37 2.5 28 -2.3 71 71 Calm 30.35 1028 10 16 0.00 0.00

Powered by AerisWeather